W5TTY Weather Reports


time (UTC)temp
C
wind
direction
speed
KPH
gust
KPH
rain 1hr
cm
rain 24hr
cm
rain mn
cm
humidity
%
barometer
mb
20220524025830 22 101 16.1 25.7 0.00 0.00 0.00 77 1012.3
20220524025318 22 84 16.1 25.7 0.00 0.00 0.00 77 1012.2
20220524024824 22 130 12.9 25.7 0.00 0.00 0.00 76 1012.3
20220524024312 22 67 12.9 24.1 0.00 0.00 0.00 76 1012.2
20220524023827 23 94 16.1 24.1 0.00 0.00 0.00 76 1012.4
20220524023315 23 81 12.9 24.1 0.00 0.00 0.00 76 1012.6
20220524022820 23 69 9.7 25.7 0.00 0.00 0.00 76 1012.6
20220524022327 23 107 14.5 25.7 0.00 0.00 0.00 76 1012.7
20220524021814 23 104 12.9 24.1 0.00 0.00 0.00 76 1012.6
20220524021319 23 82 16.1 25.7 0.00 0.00 0.00 76 1012.6
20220524020826 23 88 14.5 19.3 0.00 0.00 0.00 76 1012.7
20220524020313 23 82 12.9 22.5 0.00 0.00 0.00 76 1012.7
20220524015827 23 82 12.9 17.7 0.00 0.00 0.00 75 1012.8
20220524015316 23 88 8.0 16.1 0.00 0.00 0.00 76 1012.8
20220524014820 23 74 11.3 16.1 0.00 0.00 0.00 75 1012.7
20220524014327 24 74 9.7 14.5 0.00 0.00 0.00 75 1013.0
20220524013814 24 68 9.7 14.5 0.00 0.00 0.00 75 1012.9
20220524013320 24 101 4.8 8.0 0.00 0.00 0.00 75 1013.1
20220524012827 24 69 4.8 12.9 0.00 0.00 0.00 75 1013.1
20220524012314 25 100 6.4 12.9 0.00 0.00 0.00 75 1013.1
20220524011821 25 103 4.8 11.3 0.00 0.00 0.00 75 1013.0
20220524011333 25 98 8.0 11.3 0.00 0.00 0.00 75 1012.9
20220524010818 25 92 8.0 12.9 0.00 0.00 0.00 75 1012.8
20220524010324 25 95 4.8 12.9 0.00 0.00 0.00 75 1012.7
20220524005829 25 98 6.4 12.9 0.00 0.00 0.00 76 1012.8
20220524005316 25 98 6.4 12.9 0.00 0.00 0.00 76 1012.8
20220524004821 25 88 8.0 12.9 0.00 0.00 0.00 76 1012.7
20220524004330 25 103 9.7 16.1 0.00 0.00 0.00 76 1012.6
20220524003817 25 133 9.7 16.1 0.00 0.00 0.00 76 1012.5
20220524003327 26 118 8.0 12.9 0.00 0.00 0.00 76 1012.4
20220524002830 26 109 4.8 12.9 0.00 0.00 0.00 76 1012.5
20220524002319 26 86 6.4 12.9 0.00 0.00 0.00 76 1012.5
20220524001825 26 120 6.4 12.9 0.00 0.00 0.00 76 1012.3
20220524001313 26 83 6.4 11.3 0.00 0.00 0.00 76 1012.2
20220524000815 26 91 3.2 14.5 0.00 0.00 0.00 76 1012.2
20220524000319 26 98 8.0 16.1 0.00 0.00 0.00 76 1012.2
20220523235825 26 82 8.0 19.3 0.00 0.00 0.00 76 1012.1
20220523235327 26 115 9.7 17.7 0.00 0.00 0.00 77 1012.1
20220523234816 26 85 6.4 17.7 0.00 0.00 0.00 77 1011.9
20220523234331 26 84 9.7 22.5 0.00 0.00 0.00 77 1011.8
20220523233817 26 95 11.3 24.1 0.00 0.00 0.00 77 1011.8
20220523233323 26 123 16.1 27.4 0.00 0.00 0.00 77 1011.6
20220523232830 26 121 14.5 27.4 0.00 0.00 0.00 77 1011.6
20220523232317 27 84 16.1 27.4 0.00 0.00 0.00 78 1011.7
20220523231830 27 138 12.9 27.4 0.00 0.00 0.00 78 1012.0
20220523231332 27 126 12.9 20.9 0.00 0.00 0.00 78 1012.0
20220523230816 27 96 12.9 25.7 0.00 0.00 0.00 78 1012.0
20220523230322 27 68 17.7 25.7 0.00 0.00 0.00 78 1011.9
20220523225825 27 105 14.5 22.5 0.00 0.00 0.00 79 1012.0
20220523225311 27 95 12.9 22.5 0.00 0.00 0.00 79 1012.1
20220523224818 27 96 12.9 20.9 0.00 0.00 0.00 79 1012.2
20220523224323 27 59 16.1 22.5 0.00 0.00 0.00 79 1012.3
20220523223833 27 116 17.7 22.5 0.00 0.00 0.00 79 1012.5
20220523223318 27 106 8.0 19.3 0.00 0.00 0.00 80 1012.5
20220523222825 27 124 8.0 20.9 0.00 0.00 0.00 80 1012.6
20220523222312 27 59 11.3 20.9 0.00 0.00 0.00 80 1012.7
20220523221822 27 59 9.7 19.3 0.00 0.00 0.00 80 1012.6
20220523221329 27 52 9.7 19.3 0.00 0.00 0.00 80 1012.5
20220523220817 27 130 11.3 17.7 0.00 0.00 0.00 81 1012.6
20220523220325 27 105 11.3 20.9 0.00 0.00 0.00 81 1012.6
20220523215836 27 23 14.5 20.9 0.00 0.00 0.00 81 1012.6
20220523215337 27 59 9.7 20.9 0.00 0.00 0.00 81 1012.7
20220523214822 27 82 14.5 19.3 0.00 0.00 0.00 81 1012.8
20220523214325 27 120 6.4 12.9 0.00 0.00 0.00 82 1012.9
20220523213811 27 130 8.0 17.7 0.00 0.00 0.00 82 1013.1
20220523213318 27 79 11.3 17.7 0.00 0.00 0.00 82 1013.0
20220523212824 27 98 6.4 14.5 0.00 0.00 0.00 82 1013.1
20220523212329 27 107 8.0 16.1 0.00 0.00 0.00 82 1013.3
20220523211816 27 103 9.7 16.1 0.00 0.00 0.00 83 1013.2
20220523211322 26 48 6.4 16.1 0.00 0.00 0.00 83 1013.3
20220523210836 26 104 9.7 12.9 0.00 0.00 0.00 83 1013.4
20220523210321 26 121 8.0 17.7 0.00 0.00 0.00 83 1013.5
20220523205825 26 80 9.7 17.7 0.00 0.00 0.00 83 1013.5
20220523205312 26 65 9.7 19.3 0.00 0.00 0.00 84 1013.5
20220523204817 26 71 11.3 19.3 0.00 0.00 0.00 84 1013.4
20220523204325 26 78 4.8 17.7 0.00 0.00 0.00 84 1013.3
20220523203811 26 76 8.0 24.1 0.00 0.00 0.00 84 1013.3
20220523203317 26 67 17.7 24.1 0.00 0.00 0.00 84 1013.4
20220523202829 26 97 9.7 14.5 0.00 0.00 0.00 85 1013.6
20220523202313 26 129 4.8 16.1 0.00 0.00 0.00 85 1013.6
20220523201819 26 75 6.4 19.3 0.00 0.00 0.00 85 1013.7
20220523201325 26 96 12.9 19.3 0.00 0.00 0.00 85 1013.9
20220523200812 26 94 9.7 16.1 0.00 0.00 0.00 85 1014.0
20220523200319 26 44 6.4 16.1 0.00 0.00 0.00 85 1013.9
20220523195825 26 85 6.4 17.7 0.00 0.00 0.00 85 1014.0
20220523195311 26 92 12.9 17.7 0.00 0.00 0.00 86 1014.0
20220523194817 26 103 8.0 17.7 0.00 0.00 0.00 86 1014.1
20220523194330 26 109 6.4 17.7 0.00 0.00 0.00 86 1014.2
20220523193836 26 127 8.0 20.9 0.00 0.00 0.00 86 1014.2
20220523193323 26 90 11.3 20.9 0.00 0.00 0.00 86 1014.2
20220523192829 26 98 11.3 20.9 0.00 0.00 0.00 87 1014.3
20220523192315 26 85 11.3 22.5 0.00 0.00 0.00 87 1014.4
20220523191815 26 87 14.5 22.5 0.00 0.00 0.00 87 1014.5
20220523191319 26 76 8.0 22.5 0.00 0.00 0.00 87 1014.6
20220523190825 25 71 9.7 20.9 0.00 0.00 0.00 87 1014.6
20220523190312 25 63 8.0 22.5 0.00 0.00 0.00 87 1014.6
20220523185817 25 76 12.9 20.9 0.00 0.00 0.00 88 1014.8
20220523185311 25 91 9.7 17.7 0.00 0.00 0.00 88 1014.9
20220523184816 25 62 8.0 20.9 0.00 0.00 0.00 88 1015.0
20220523184318 25 119 14.5 24.1 0.00 0.00 0.00 88 1015.1
20220523183825 25 100 11.3 27.4 0.00 0.00 0.00 88 1015.1
20220523183329 25 92 14.5 27.4 0.00 0.00 0.00 88 1015.3
20220523182815 25 69 12.9 22.5 0.00 0.00 0.00 89 1015.4
20220523182320 24 49 14.5 22.5 0.00 0.00 0.00 89 1015.6
20220523181833 24 30 11.3 22.5 0.00 0.00 0.00 89 1015.7
20220523181320 24 97 11.3 20.9 0.00 0.00 0.00 89 1015.9
20220523180827 24 64 8.0 19.3 0.00 0.00 0.00 89 1016.0
20220523180314 24 94 6.4 17.7 0.00 0.00 0.00 89 1016.1
20220523175815 24 97 11.3 17.7 0.00 0.00 0.00 89 1016.2
20220523175321 24 86 9.7 17.7 0.00 0.00 0.00 89 1016.3
20220523174824 24 90 4.8 19.3 0.00 0.00 0.00 89 1016.4
20220523174336 23 65 9.7 19.3 0.00 0.00 0.00 89 1016.4
20220523173821 23 57 9.7 20.9 0.00 0.00 0.00 89 1016.5
20220523173328 23 94 9.7 20.9 0.00 0.00 0.00 90 1016.6
20220523172812 23 70 9.7 17.7 0.00 0.00 0.00 90 1016.7
20220523172318 23 108 11.3 17.7 0.00 0.00 0.00 90 1016.8
20220523171826 23 70 11.3 19.3 0.00 0.00 0.00 90 1016.9
20220523171323 23 91 9.7 19.3 0.00 0.00 0.00 90 1017.0
20220523170832 23 86 12.9 17.7 0.00 0.00 0.00 91 1017.2
20220523170337 23 114 9.7 19.3 0.00 0.00 0.00 90 1017.2
20220523165823 23 96 8.0 20.9 0.00 0.00 0.00 90 1017.2
20220523165327 23 78 11.3 20.9 0.00 0.00 0.00 90 1017.2
20220523164813 23 92 11.3 16.1 0.00 0.00 0.00 91 1017.4
20220523164319 22 85 9.7 19.3 0.00 0.00 0.00 91 1017.4
20220523163826 22 62 9.7 19.3 0.00 0.00 0.00 90 1017.6
20220523163311 22 26 8.0 16.1 0.00 0.00 0.00 91 1017.7
20220523162818 22 63 9.7 14.5 0.00 0.00 0.00 91 1017.9
20220523162332 22 72 9.7 17.7 0.00 0.00 0.00 91 1017.9
20220523161833 22 69 9.7 17.7 0.00 0.00 0.00 91 1018.1
20220523161321 22 137 3.2 17.7 0.00 0.00 0.00 91 1018.0
20220523160825 22 125 9.7 17.7 0.00 0.00 0.00 91 1018.1
20220523160329 22 142 6.4 16.1 0.00 0.00 0.00 91 1018.2
20220523155831 22 28 8.0 16.1 0.00 0.00 0.00 91 1018.2
20220523155316 22 90 3.2 12.9 0.00 0.00 0.00 91 1018.4
20220523154829 21 82 8.0 12.9 0.00 0.00 0.00 91 1018.5
20220523154315 22 102 8.0 9.7 0.00 0.00 0.00 91 1018.6
20220523153822 21 263 1.6 11.3 0.00 0.00 0.00 91 1018.6
20220523153328 21 61 6.4 12.9 0.00 0.00 0.00 91 1018.6
20220523152816 21 111 6.4 16.1 0.00 0.00 0.00 91 1018.5
20220523152320 21 164 4.8 12.9 0.00 0.00 0.00 91 1018.6
20220523151826 21 98 8.0 12.9 0.00 0.00 0.00 91 1018.6
20220523151311 21 74 3.2 17.7 0.00 0.00 0.00 91 1018.5
20220523150825 21 103 8.0 17.7 0.00 0.00 0.00 91 1018.6
20220523150332 21 128 8.0 17.7 0.00 0.00 0.00 91 1018.6
20220523145819 21 42 11.3 17.7 0.00 0.03 0.00 91 1018.5
20220523145326 20 71 11.3 17.7 0.00 0.03 0.00 92 1018.5
20220523144811 20 76 9.7 17.7 0.00 0.03 0.00 92 1018.6
20220523144316 20 86 9.7 14.5 0.00 0.03 0.00 91 1018.6
20220523143818 20 42 8.0 16.1 0.00 0.03 0.00 91 1018.7
20220523143325 20 73 4.8 14.5 0.00 0.03 0.00 91 1018.7
20220523142811 20 77 8.0 16.1 0.00 0.03 0.00 91 1018.8
20220523142319 20 71 6.4 16.1 0.00 0.03 0.00 91 1018.9
20220523141832 20 84 9.7 16.1 0.00 0.03 0.00 91 1018.9
20220523141320 20 75 11.3 16.1 0.00 0.03 0.00 91 1018.9
20220523140825 19 63 8.0 16.1 0.00 0.03 0.00 91 1019.0
20220523140331 19 67 9.7 16.1 0.00 0.03 0.00 91 1019.1
20220523135818 19 63 8.0 16.1 0.00 0.03 0.00 91 1019.2
20220523135331 19 68 11.3 16.1 0.00 0.03 0.00 91 1019.2
20220523134820 19 43 6.4 14.5 0.00 0.03 0.00 91 1019.2
20220523134322 19 78 9.7 14.5 0.00 0.03 0.00 91 1019.2
20220523133827 19 92 4.8 14.5 0.00 0.03 0.00 91 1019.3
20220523133313 19 107 6.4 11.3 0.00 0.03 0.00 91 1019.2
20220523132819 19 82 4.8 12.9 0.00 0.03 0.00 91 1019.3
20220523132325 19 77 6.4 14.5 0.00 0.03 0.00 91 1019.2
20220523131813 19 84 9.7 12.9 0.00 0.03 0.00 91 1019.1
20220523131320 19 89 8.0 12.9 0.00 0.03 0.00 91 1019.1
20220523130827 19 63 4.8 9.7 0.00 0.03 0.00 91 1019.0
20220523130315 19 65 6.4 9.7 0.00 0.03 0.00 90 1018.9
20220523125817 19 71 6.4 11.3 0.00 0.03 0.00 91 1018.8
20220523125332 19 57 8.0 12.9 0.00 0.03 0.00 90 1018.7
20220523124821 19 71 4.8 16.1 0.00 0.03 0.00 90 1018.6
20220523124329 19 66 9.7 16.1 0.00 0.03 0.00 90 1018.5
20220523123818 18 42 8.0 14.5 0.00 0.03 0.00 91 1018.4
20220523123326 18 39 6.4 14.5 0.00 0.03 0.00 90 1018.3
20220523122830 18 77 8.0 11.3 0.00 0.03 0.00 91 1018.2
20220523122318 18 58 6.4 9.7 0.00 0.03 0.00 90 1018.2
20220523121823 18 78 6.4 11.3 0.00 0.03 0.00 90 1018.2
20220523121336 18 86 8.0 12.9 0.00 0.03 0.00 90 1018.1
20220523120822 18 46 6.4 14.5 0.00 0.03 0.00 90 1018.1
20220523120326 18 69 6.4 14.5 0.00 0.03 0.00 90 1018.0
20220523115812 18 63 8.0 14.5 0.00 0.03 0.00 90 1017.7
20220523115319 18 33 6.4 9.7 0.00 0.03 0.00 90 1017.7
20220523114826 18 36 6.4 9.7 0.00 0.03 0.00 90 1017.7
20220523114330 18 32 6.4 12.9 0.00 0.03 0.00 90 1017.7
20220523113817 18 38 6.4 12.9 0.00 0.03 0.00 90 1017.7
20220523113328 18 47 8.0 9.7 0.00 0.03 0.00 90 1017.6
20220523112834 18 32 4.8 11.3 0.00 0.03 0.00 90 1017.7
20220523112322 18 40 6.4 11.3 0.00 0.03 0.00 90 1017.7
20220523111825 18 61 8.0 16.1 0.00 0.03 0.00 90 1017.5
20220523111311 18 46 9.7 16.1 0.00 0.03 0.00 90 1017.5
20220523110819 19 37 8.0 11.3 0.00 0.03 0.00 90 1017.4
20220523110327 19 45 6.4 12.9 0.00 0.03 0.00 90 1017.4
20220523105827 19 69 6.4 14.5 0.00 0.05 0.00 90 1017.3
20220523105316 19 71 8.0 14.5 0.00 0.05 0.00 90 1017.3
20220523104829 19 56 4.8 11.3 0.00 0.05 0.00 90 1017.3
20220523104317 19 55 6.4 12.9 0.00 0.05 0.00 90 1017.4
20220523103826 19 56 8.0 12.9 0.00 0.05 0.00 90 1017.4
20220523103315 19 34 6.4 12.9 0.00 0.05 0.00 90 1017.3
20220523102823 19 38 8.0 11.3 0.00 0.05 0.00 90 1017.4
20220523102312 19 58 8.0 11.3 0.00 0.05 0.00 90 1017.3
20220523101821 19 45 6.4 9.7 0.00 0.05 0.00 90 1017.3
20220523101332 19 30 4.8 8.0 0.00 0.05 0.00 90 1017.3
20220523100818 19 32 4.8 8.0 0.00 0.05 0.00 90 1017.5
20220523100322 19 350 6.4 9.7 0.00 0.05 0.00 90 1017.4
20220523095827 19 5 6.4 9.7 0.00 0.20 0.00 89 1017.5
20220523095313 19 44 8.0 11.3 0.00 0.20 0.00 89 1017.4
20220523094822 19 21 8.0 9.7 0.00 0.20 0.00 89 1017.5
20220523094329 19 338 6.4 12.9 0.00 0.20 0.00 89 1017.5
20220523093818 19 355 6.4 12.9 0.00 0.20 0.00 89 1017.5
20220523093320 19 360 6.4 12.9 0.00 0.20 0.00 89 1017.5
20220523092833 19 344 6.4 12.9 0.00 0.20 0.00 89 1017.6
20220523092320 19 355 8.0 12.9 0.00 0.20 0.00 89 1017.7
20220523091829 19 335 4.8 9.7 0.00 0.20 0.00 89 1017.8
20220523091318 19 348 4.8 12.9 0.00 0.20 0.00 89 1017.8
20220523090826 18 355 8.0 12.9 0.00 0.20 0.00 89 1017.7
20220523090314 18 338 6.4 9.7 0.00 0.20 0.00 89 1017.7
20220523085821 19 323 8.0 9.7 0.00 0.38 0.00 89 1017.7
20220523085329 18 355 6.4 8.0 0.00 0.38 0.00 89 1017.6
20220523084817 18 17 3.2 9.7 0.00 0.38 0.00 89 1017.6
20220523084326 18 316 6.4 9.7 0.00 0.38 0.00 89 1017.7
20220523083814 18 323 3.2 6.4 0.00 0.38 0.00 89 1017.7
20220523083327 18 121 0.0 8.0 0.00 0.38 0.00 89 1017.7
20220523082817 18 349 4.8 12.9 0.00 0.38 0.00 89 1017.8
20220523082324 18 342 8.0 12.9 0.00 0.38 0.00 89 1017.7
20220523081812 18 313 3.2 8.0 0.00 0.38 0.00 89 1017.7
20220523081320 18 306 4.8 8.0 0.00 0.38 0.00 89 1017.7
20220523080828 18 333 4.8 8.0 0.00 0.38 0.00 89 1017.7
20220523080316 18 342 4.8 6.4 0.00 0.38 0.00 89 1017.7
20220523075824 18 17 3.2 8.0 0.00 0.46 0.00 89 1017.9
20220523075313 18 319 4.8 8.0 0.00 0.46 0.00 89 1017.7
20220523074827 18 22 6.4 8.0 0.00 0.46 0.00 89 1017.7
20220523074330 18 36 6.4 8.0 0.00 0.46 0.00 89 1017.7
20220523073817 18 9 4.8 8.0 0.00 0.46 0.00 89 1017.8
20220523073326 18 39 3.2 9.7 0.00 0.46 0.00 89 1017.7
20220523072814 18 32 4.8 9.7 0.00 0.46 0.00 89 1017.7
20220523072323 18 355 6.4 12.9 0.00 0.46 0.00 89 1017.7
20220523071830 18 345 6.4 14.5 0.00 0.46 0.00 89 1017.8
20220523071317 18 36 9.7 14.5 0.00 0.46 0.00 89 1017.8
20220523070830 18 49 6.4 12.9 0.00 0.46 0.00 89 1018.0
20220523070337 18 29 8.0 12.9 0.00 0.46 0.00 89 1018.1
20220523065823 18 36 4.8 11.3 0.00 0.46 0.00 89 1018.1
20220523065328 18 54 6.4 14.5 0.00 0.46 0.00 89 1018.3
20220523064815 18 46 8.0 14.5 0.00 0.46 0.00 89 1018.3
20220523064321 18 53 8.0 14.5 0.00 0.46 0.00 88 1018.4
20220523063827 18 28 8.0 9.7 0.00 0.46 0.00 88 1018.5
20220523063316 18 22 6.4 9.7 0.00 0.46 0.00 88 1018.5
20220523062830 18 22 6.4 9.7 0.00 0.46 0.00 88 1018.6
20220523062317 18 13 4.8 9.7 0.00 0.46 0.00 88 1018.7
20220523061826 18 360 4.8 9.7 0.00 0.46 0.00 88 1018.7
20220523061312 18 37 4.8 8.0 0.00 0.46 0.00 88 1018.7
20220523060820 18 24 6.4 8.0 0.00 0.46 0.00 88 1018.8
20220523060328 17 337 3.2 8.0 0.00 0.46 0.00 88 1018.9
20220523055815 17 36 4.8 14.5 0.00 0.53 0.00 88 1018.8
20220523055317 17 360 8.0 14.5 0.00 0.53 0.00 88 1018.7
20220523054831 17 21 8.0 14.5 0.00 0.53 0.00 88 1018.7
20220523054316 17 45 8.0 12.9 0.00 0.53 0.00 88 1018.8
20220523053823 17 39 8.0 11.3 0.00 0.53 0.00 88 1018.9
20220523053312 17 34 8.0 12.9 0.00 0.53 0.00 88 1018.9
20220523052819 17 360 6.4 14.5 0.00 0.53 0.00 88 1019.0
20220523052328 17 40 8.0 14.5 0.00 0.53 0.00 88 1019.0
20220523051814 17 49 9.7 14.5 0.00 0.53 0.00 87 1019.0
20220523051322 17 48 8.0 14.5 0.00 0.53 0.00 87 1018.9
20220523050827 17 66 6.4 11.3 0.00 0.53 0.00 87 1019.0
20220523050313 17 57 6.4 14.5 0.00 0.53 0.00 87 1019.0
20220523045820 17 42 8.0 14.5 0.00 0.61 0.53 87 1019.0
20220523045334 17 51 8.0 14.5 0.00 0.61 0.53 87 1019.0
20220523044822 17 50 8.0 16.1 0.00 0.61 0.53 87 1018.9
20220523044329 17 51 6.4 16.1 0.00 0.61 0.53 87 1018.9
20220523043818 17 68 8.0 17.7 0.00 0.61 0.53 87 1018.8
20220523043325 17 61 11.3 17.7 0.00 0.61 0.53 87 1018.7
20220523042814 17 49 11.3 17.7 0.00 0.61 0.53 87 1018.7
20220523042317 17 30 8.0 17.7 0.00 0.61 0.53 87 1018.8
20220523041825 18 49 9.7 17.7 0.00 0.61 0.53 87 1018.7
20220523041313 18 49 9.7 16.1 0.00 0.61 0.53 87 1018.7
20220523040826 18 26 8.0 14.5 0.00 0.61 0.53 87 1018.7
20220523040333 18 25 9.7 16.1 0.00 0.61 0.53 87 1018.8
20220523035820 18 19 8.0 16.1 0.00 0.61 0.53 87 1018.9
20220523035327 18 22 9.7 16.1 0.00 0.61 0.53 87 1018.8
20220523034812 18 40 12.9 16.1 0.00 0.61 0.53 87 1018.8
20220523034319 18 22 9.7 16.1 0.00 0.61 0.53 87 1018.9
20220523033822 18 21 8.0 16.1 0.00 0.61 0.53 87 1019.0
20220523033330 18 24 8.0 14.5 0.00 0.61 0.53 87 1019.1
20220523032816 18 28 8.0 14.5 0.00 0.61 0.53 86 1019.1
20220523032322 18 49 11.3 14.5 0.00 0.61 0.53 86 1019.2
20220523031830 18 21 6.4 14.5 0.00 0.61 0.53 86 1019.1
20220523031318 18 24 9.7 14.5 0.00 0.61 0.53 86 1019.0
20220523030825 18 42 9.7 14.5 0.00 0.61 0.53 86 1018.9
20220523030331 18 30 8.0 14.5 0.00 0.61 0.53 86 1018.8